Flag for U.S.A. Weather past 2 weeks in Jefferson City, Missouri, U.S.A.

Now
81 °F

Sunny.


Feels Like: 83 °F
Forecast: 66 / 88 °F
Wind: 6 mph from Northwest

Location: Jefferson City Memorial Airport

Current Time: Jun 30, 2015 at 12:34:32 PM

Latest Report: Jun 30, 2015 at 11:53 AM


Visibility: 10 mi

Pressure: 29.87 "Hg

Humidity: 62%

Dew point: 67 °F

Location of Jefferson CityLocation

Historic Weather in Jefferson City — Graph

°F

Jefferson City temperature yesterday

Maximum temperature yesterday: 85 °F (at 2:53 PM)
Minimum temperature yesterday: 67 °F (at 4:53 AM)
Average temperature yesterday: 76 °F

Past Weeks' High & Low Weather Summary

 TemperatureHumidityPressure
High93 °F (Jun 20, 5:53 PM)97% (Jun 16, 5:53 AM)30.10 "Hg (Jun 16, 5:53 AM)
Low64 °F (Jun 28, 2:53 AM)46% (Jun 29, 2:53 PM)29.72 "Hg (Jun 28, 5:53 PM)
Average76 °F78%29.92 "Hg
* Reported Jun 15 10:53 AM — Jun 30 10:53 AM, Jefferson City, Weather by CustomWeather, © 2015

Note: Actual official high and low records may vary slightly from our data, if they occured in-between our weather recording intervals... More about our weather records

Advertising

Jefferson City weather history for previous 24 hours

 ConditionsComfort  
Time TempWeatherWind HumidityBarometerVisibility
10:53 AM
Tue, Jun 30
77 °FSunny.3 mph71%29.88 "Hg10 mi
9:53 AM74 °FSunny.6 mph79%29.89 "Hg9 mi
8:53 AM73 °FSunny.3 mph79%29.89 "Hg8 mi
7:53 AM69 °FFog.No wind93%29.88 "Hg6 mi
6:53 AM67 °FFog.No wind97%29.88 "Hg4 mi
5:53 AM68 °FClear.No wind93%29.86 "Hg8 mi
4:53 AM68 °FClear.No wind93%29.85 "Hg7 mi
3:53 AM68 °FPassing clouds.No wind93%29.85 "Hg9 mi
2:53 AM69 °FClear.No wind90%29.84 "Hg7 mi
1:53 AM70 °FClear.No wind93%29.86 "Hg8 mi
12:53 AM71 °FClear.No wind87%29.86 "Hg10 mi
11:53 PM
Mon, Jun 29
72 °FClear.No wind87%29.85 "Hg10 mi
10:53 PM74 °FPassing clouds.No wind85%29.84 "Hg10 mi
9:53 PM75 °FPassing clouds.No wind79%29.84 "Hg10 mi
8:53 PM78 °FSunny.No wind71%29.82 "Hg10 mi
7:53 PM81 °FSunny.No wind60%29.82 "Hg10 mi
6:53 PM84 °FSunny.6 mph51%29.81 "Hg10 mi
5:53 PM84 °FSunny.8 mph46%29.82 "Hg10 mi
4:53 PM85 °FSunny.10 mph46%29.83 "Hg10 mi
3:53 PM85 °FSunny.8 mph46%29.84 "Hg10 mi
2:53 PM85 °FSunny.15 mph46%29.83 "Hg10 mi
1:53 PM84 °FSunny.9 mph48%29.85 "Hg10 mi
12:53 PM84 °FPassing clouds.14 mph53%29.85 "Hg10 mi
Weather by CustomWeather, © 2015

See weather overviewHow to use our weather pages